Location: La Silve
(44.2414°N, 5.8889°E)
Time: 04:27:48
(UTC+00:00)

Okean-O - Pass Details

Date: 01 December 2020
Orbit: 639 x 640 km, 98.2° (Epoch: 27 January)

Event Time Altitude Azimuth Distance (km) Brightness Sun altitude
Rises 17:56:39 0° 159° (SSE) 2,930 5.9 -20.5°
Reaches altitude 10° 17:58:51 10° 157° (SSE) 2,026 5.1 -20.9°
Maximum altitude 18:03:14 69° 74° (ENE) 687 2.5 -21.7°
Drops below altitude 10° 18:07:39 10° 351° (N) 2,042 5.2 -22.4°
Sets 18:09:53 0° 349° (N) 2,956 6.1 -22.8°
